Find SkySat C10

NORAD ID: 42988 Int'l Des: 2017-068 Owner: PLABST Country: US operational
LEOCIRCULARRETROGRADESSO

現在のビュー

3D地球を読み込み中...

About SkySat C10

SkySat C10 (NORAD 42988) is a satellite launched Oct 31, 2017 by PLABST of US. It operates in LEO, CIRCULAR, RETROGRADE, SSO orbit with a mass of 110.00 kg.

次回通過

Passes for default location (London). Set your location on the main map for personalized predictions.

高度履歴

Loading altitude history...

軌道要素

1 42988U 17068B 26194.37016463 .00006314 00000-0 18783-3 0 9999
2 42988 97.4530 331.4844 0001416 109.9399 250.1996 15.35093384486371
Epoch: Jul 13, 2026 • Age: 17 hours

現在のステータス

高度 465.4 km
遠地点 / 近地点 N/A
速度 7.64 km/s
衛星直下点 36.86°N, 0.85°E
打ち上げ日 Oct 31, 2017
運用期間 8.7 years
タイプ earth observation

技術仕様

分類 Payload
質量 110.00 kg
乾燥質量 110.00 kg
総質量 110.00 kg
長さ 1.20 m
直径 0.50 m
スパン 0.50 m
形状 Box
製造者 SSLMAX
バスタイプ SkySat-Gen2
フェーズステータス In Orbit
所有者/国 PLABST/US

Most Searched